Welcome to the New NWS' Forecast!
Most changes are behind the scenes, but click here for differences you might notice.

Regional Weather Roundup (RWR)

Issued by National Weather Service (NWS)

                            
000
ASUS46 KSEW 160910
RWRWA 

WASHINGTON REGIONAL WEATHER ROUNDUP
NATIONAL WEATHER SERVICE SEATTLE WA
100 AM PST FRI NOV 16 2018

NOTE:"FAIR" INDICATES FEW OR NO CLOUDS BELOW 12,000 FEET WITH NO 
SIGNIFICANT WEATHER AND/OR OBSTRUCTIONS TO VISIBILITY.

WAZ507-509-555>559-161000-
SEATTLE, TACOMA, EVERETT, AND VICINITY
  
CITY           SKY/WX    TMP DP  RH WIND       PRES   REMARKS
EVERETT        LGT RAIN  50  48  93 SE7       30.19S FOG              
BOEING FIELD   CLOUDY    54  47  77 S5        30.20R                  
RENTON         CLOUDY    54  48  80 SE5       30.20R                  
SEATAC AIRPORT CLOUDY    54  47  77 S7        30.20R                  
JBLM-MCCHORD   CLOUDY    53  53  99 S7        30.19F                  
PUYALLUP       CLOUDY    54  50  87 S5        30.20S                  
BREMERTON      CLOUDY    51  49  92 CALM      30.19R                  
JBLM-FT LEWIS  CLOUDY    53  53  99 S9        30.19S                  
TACOMA NARROWS CLOUDY    52  47  83 S9        30.19S                  
$$
 
WAZ001-503-506-510-514-515-161000-
NORTH INTERIOR
  
CITY           SKY/WX    TMP DP  RH WIND       PRES   REMARKS
BELLINGHAM     CLOUDY    51  48  89 S7        30.18R                  
FRIDAY HARBOR  CLOUDY    51  48  89 N6        30.20R FOG              
EASTSOUND      CLOUDY    52  50  93 NW5       30.19R                  
PORT ANGELES   CLOUDY    53  50  89 NE5       30.20R                  
EDIZ HOOK      CLOUDY    52  50  94 NW9       30.19R                  
PORT TOWNSEND  DRIZZLE   50  50 100 CALM      30.18S                  
NAS WHIDBEY    CLOUDY    53  49  86 E7        30.23R                  
ARLINGTON      LGT RAIN  50  49  96 SE6       30.20R FOG              
BURLINGTON     CLOUDY    50  50 100 CALM      30.20R FOG              
$$
 
WAZ020-022-039-040-504-511-512-161000-
SOUTHWEST INTERIOR
  
CITY           SKY/WX    TMP DP  RH WIND       PRES   REMARKS
SHELTON        CLOUDY    53  51  93 SW12G21   30.16F                  
OLYMPIA        CLOUDY    52  48  86 SW14      30.20S                  
CHEHALIS       CLOUDY    50  48  93 S8        30.23S                  
KELSO          CLOUDY    47  46  97 S6        30.26F                  
VANCOUVER      CLOUDY    43  41  93 CALM      30.26S                  
SCAPPOOSE, OR  CLOUDY    44  41  89 CALM      30.26S                  
PORTLAND, OR   CLOUDY    43  41  93 CALM      30.27S                  
$$
 
WAZ021-516-517-161000-
WASHINGTON COAST
  
CITY           SKY/WX    TMP DP  RH WIND       PRES   REMARKS
FORKS          LGT RAIN  51  51 100 CALM      30.20S FOG              
HOQUIAM        FOG       53  53 100 SW9       30.21F VSB 3/4          
ASTORIA, OR    CLOUDY    47  47 100 SE5       30.24F FOG              
$$
 
WAZ019-023-024-040-567>569-161000-
CASCADE MOUNTAINS AND COLUMBIA GORGE
  
CITY           SKY/WX    TMP DP  RH WIND       PRES   REMARKS
STAMPEDE PASS  NOT AVBL                                               
TROUTDALE, OR  MOCLDY    39  38  96 CALM      30.26S FOG              
HOOD RIVER, OR SUNNY     39  36  87 CALM      30.20S                  
THE DALLES, OR CLEAR     40  36  86 S5        30.18S                  
$$

WAZ026-027-041>044-520-521-161000-
EAST SLOPES
  
CITY           SKY/WX    TMP DP  RH WIND       PRES   REMARKS
OMAK           CLOUDY    37  35  92 N12       30.17R                  
WENATCHEE      MOCLDY    34  32  92 S5        30.11R FOG              
ELLENSBURG     PTCLDY    51  41  68 W13       30.11S                  
YAKIMA         CLOUDY    34  31  88 W3        30.15F                  
SUNNYSIDE ARPT PTSUNNY   33  32  96 CALM      30.16  FOG              
YAKIMA TC      PTSUNNY   35  31  86 SE3       30.11F                  
$$

WAZ028-034-035-161000-
COLUMBIA BASIN
  
CITY           SKY/WX    TMP DP  RH WIND       PRES   REMARKS
EPHRATA        CLOUDY    37  34  89 N3        30.11R FOG              
MOSES LAKE     CLOUDY    36  33  89 N5        30.12R FOG              
PASCO          MOCLDY    36  33  89 CALM      30.15F FOG              
RICHLAND ARPT  CLOUDY    41  38  88 S5        30.14F                  
HERMISTON, OR  PTCLDY    33  31  92 NE5       30.15S                  
$$

WAZ036>038-161000-
NORTHEAST WASHINGTON
  
CITY           SKY/WX    TMP DP  RH WIND       PRES   REMARKS
SPOKANE GEIGER CLOUDY    39  37  92 SW5       30.09R                  
SPOKANE FELTS  CLOUDY    43  39  86 CALM      30.10R                  
FAIRCHILD AFB  MOCLDY    38  38 100 CALM      30.07S                  
COEURDALENE,ID CLOUDY    42  38  85 S5        30.09R                  
DEER PARK      FOG       34  33  96 CALM      30.10R VSB 1/2          
$$

WAZ029>033-161000-
SOUTHEAST WASHINGTON
  
CITY           SKY/WX    TMP DP  RH WIND       PRES   REMARKS
PULLMAN        LGT RAIN  42  38  85 S3        30.11F                  
LEWISTON, ID   CLOUDY    42  36  79 CALM      30.14R                  
WALLA WALLA    MOCLDY    48  37  65 S9        30.13S                  
PENDLETON, OR  PTCLDY    40  34  79 SE9       30.14S                  
$$